Flag for French Polynesia Weather past 2 weeks in Taiohae, Marquesas Islands, French Polynesia

Now
82 °F

Warm.


Feels Like: 87 °F
Forecast: 79 / 84 °F
Wind: 9 mph from East

Location: Atuona

Current Time: Mar 5, 2015 at 6:42:42 PM

Latest Report: Mar 5, 2015 at 5:30 PM


Visibility: N/A

Pressure: 29.72 "Hg

Humidity: 74%

Dew point: 73 °F

Location of TaiohaeLocation

Historic Weather in Taiohae — Graph

°F

Taiohae temperature yesterday

Maximum temperature yesterday: 86 °F (at 11:30 AM)
Minimum temperature yesterday: 76 °F (at 2:30 AM)
Average temperature yesterday: 81 °F

Past Weeks' High & Low Weather Summary

 TemperatureHumidityPressure
High90 °F (Feb 23, 11:30 AM)96% (Feb 21, 6:30 PM)29.94 "Hg (Feb 21, 6:30 PM)
Low72 °F (Feb 22, 5:30 AM)59% (Feb 21, 11:30 AM)29.70 "Hg (Mar 5, 3:30 PM)
Average80 °F79%29.83 "Hg
* Reported Feb 18 4:30 PM — Mar 5 4:30 PM, Taiohae, Weather by CustomWeather, © 2015

Note: Actual official high and low records may vary slightly from our data, if they occured in-between our weather recording intervals... More about our weather records

Advertising

Taiohae weather history for previous 24 hours

 ConditionsComfort  
Time TempWeatherWind HumidityBarometerVisibility
4:30 PM
Thu, Mar 5
83 °FScattered clouds.12 mph72%29.70 "Hg22 mi
3:30 PM85 °FWarm.12 mph70%29.70 "HgN/A
2:30 PM86 °FPassing clouds.12 mph67%29.71 "Hg22 mi
1:30 PM87 °FScattered clouds.14 mph69%29.72 "Hg22 mi
12:30 PM86 °FWarm.14 mph69%29.76 "HgN/A
10:30 AM87 °FWarm.14 mph71%29.81 "HgN/A
9:30 AM86 °FWarm.15 mph69%29.82 "HgN/A
8:30 AM85 °FScattered clouds.10 mph69%29.83 "Hg22 mi
7:30 AM80 °FWarm.2 mph83%29.82 "HgN/A
6:30 AM77 °FMild.7 mph86%29.79 "HgN/A
5:30 AM78 °FWarm.9 mph79%29.77 "HgN/A
4:30 AM79 °FWarm.3 mph76%29.75 "HgN/A
3:30 AM79 °FWarm.6 mph75%29.74 "HgN/A
2:30 AM80 °FWarm.8 mph74%29.73 "HgN/A
1:30 AM80 °FWarm.7 mph74%29.74 "HgN/A
12:30 AM80 °FWarm.7 mph72%29.75 "HgN/A
11:30 PM
Wed, Mar 4
81 °FWarm.12 mph70%29.77 "HgN/A
10:30 PM81 °FWarm.15 mph71%29.78 "HgN/A
9:30 PM81 °FWarm.15 mph74%29.78 "HgN/A
8:30 PM81 °FWarm.15 mph73%29.78 "HgN/A
7:30 PM81 °FWarm.15 mph73%29.76 "HgN/A
6:30 PM81 °FWarm.12 mph75%29.75 "HgN/A
Weather by CustomWeather, © 2015

See weather overviewHow to use our weather pages